Morrisville, NC

8:25 PM EST on February 27, 2017 (GMT -0500)
Raleigh-Durham International

Weather History for KRDU - June, 2013

Change the Weather History Date:

Friday, June 7, 2013

  Actual Average Record
Temperature  
Mean Temperature 72 °F 74 °F  
Max Temperature 76 °F 85 °F 100 °F (2008)
Min Temperature 68 °F 64 °F 47 °F (1977)
Degree Days  
Heating Degree Days 0 0  
Month to date heating degree days 0 0  
Since 1 June heating degree days 0 0  
Since 1 July heating degree days 3320 3243  
Cooling Degree Days 7 10  
Month to date cooling degree days 64 62  
Year to date cooling degree days 242 271  
Since 1 June cooling degree days 64 62  
Growing Degree Days 22 (Base 50)    
Moisture  
Dew Point 68 °F    
Average Humidity 94    
Maximum Humidity 97    
Minimum Humidity 90    
Precipitation  
Precipitation 5.14 in 0.11 in 5.14 in (2013)
Month to date precipitation 6.08 0.85  
Year to date precipitation 25.11 17.88  
Sea Level Pressure  
Sea Level Pressure 29.68 in    
Wind  
Wind Speed 5 mph (North)    
Max Wind Speed 14 mph    
Max Gust Speed 30 mph    
Visibility 5 miles    
Events Rain , Thunderstorm    
T = Trace of Precipitation, MM = Missing Value Source: NWS Daily Summary

Daily Weather History Graph

Daily Weather History Graph

Search for Another Location

Airport or City:

Trip Planner

Search our weather history database for the weather conditions in past years. The results will help you decide how hot, cold, wet, or windy it might be!

Date:

Astronomy

Jun. 07, 2013 Rise Set
Actual Time 5:58 AM EDT 8:29 PM EDT
Civil Twilight 5:28 AM EDT 8:59 PM EDT
Nautical Twilight 4:51 AM EDT 9:36 PM EDT
Astronomical Twilight 4:10 AM EDT 10:17 PM EDT
Moon 5:17 AM EDT (6/7) 7:44 PM EDT (6/7)
Length of Visible Light 15h 31m
Length of Day
14h 31m
Waning Crescent, 1% of the Moon is Illuminated
Jun 7
Waning Crescent
Jun 8
New
Jun 16
First Quarter
Jun 23
Full
Jun 30
Last Quarter

Hourly Weather History & Observations

Time (EDT) Temp. Dew Point Humidity Pressure Visibility Wind Dir Wind Speed Gust Speed Precip Events Conditions
12:19 AM 69.8 °F 68.0 °F 94% 29.87 in 10.0 mi SSE 3.5 mph - 0.00 in Rain Light Rain
12:51 AM 69.1 °F 68.0 °F 96% 29.85 in 9.0 mi SE 3.5 mph - 0.00 in Rain Light Rain
1:36 AM 69.8 °F 68.0 °F 94% 29.85 in 7.0 mi Calm Calm - 0.01 in Rain Light Rain
1:51 AM 70.0 °F 68.0 °F 93% 29.83 in 7.0 mi East 3.5 mph - 0.03 in Rain Light Rain
1:55 AM 69.8 °F 68.0 °F 94% 29.83 in 2.0 mi East 3.5 mph - 0.00 in Rain Light Rain
2:21 AM 69.8 °F 68.0 °F 94% 29.82 in 2.0 mi East 4.6 mph - 0.02 in Rain Light Rain
2:51 AM 70.0 °F 68.0 °F 93% 29.79 in 2.0 mi East 4.6 mph - 0.05 in Rain Light Rain
3:51 AM 70.0 °F 68.0 °F 93% 29.75 in 2.0 mi East 6.9 mph - 0.05 in Rain Light Rain
4:21 AM 69.8 °F 66.2 °F 88% 29.73 in 1.0 mi ENE 6.9 mph 16.1 mph 0.14 in Rain , Thunderstorm Heavy Thunderstorms and Rain
4:51 AM 69.1 °F 66.9 °F 93% 29.71 in 2.0 mi NNE 3.5 mph - 0.56 in Rain Rain
5:25 AM 69.8 °F 66.2 °F 88% 29.71 in 2.0 mi ENE 6.9 mph - 0.23 in Rain Rain
5:51 AM 69.1 °F 66.9 °F 93% 29.69 in 2.0 mi Calm Calm - 0.30 in Rain Light Rain
6:51 AM 69.1 °F 66.9 °F 93% 29.68 in 2.0 mi Calm Calm - 0.12 in Rain Light Rain
7:37 AM 69.8 °F 68.0 °F 94% 29.67 in 2.0 mi Calm Calm - 0.08 in Rain Light Rain
7:51 AM 69.1 °F 66.9 °F 93% 29.66 in 2.0 mi Calm Calm - 0.09 in Rain Light Rain
8:51 AM 70.0 °F 68.0 °F 93% 29.65 in 2.0 mi Calm Calm - 0.02 in   Overcast
9:10 AM 71.6 °F 69.8 °F 94% 29.66 in 1.5 mi NNE 3.5 mph - 0.02 in Rain Light Rain
9:51 AM 71.1 °F 69.1 °F 93% 29.63 in 1.5 mi North 4.6 mph - 0.07 in Rain Light Rain
10:51 AM 72.0 °F 70.0 °F 93% 29.60 in 8.0 mi NE 6.9 mph - 0.02 in   Overcast
11:51 AM 73.9 °F 71.1 °F 91% 29.57 in 6.0 mi NE 6.9 mph - 0.01 in Rain Light Rain
12:51 PM 75.9 °F 73.0 °F 91% 29.54 in 7.0 mi North 4.6 mph - 0.04 in   Overcast
1:14 PM 73.4 °F 71.6 °F 94% 29.54 in 2.0 mi NNE 4.6 mph - 0.00 in Rain Rain
1:21 PM 73.4 °F 71.6 °F 94% 29.54 in 1.0 mi North 6.9 mph - 0.16 in Rain Heavy Rain
1:51 PM 72.0 °F 71.1 °F 97% 29.52 in 0.8 mi Variable 5.8 mph - 1.18 in Rain Heavy Rain
2:39 PM 69.8 °F 69.8 °F 100% 29.53 in 1.0 mi NW 9.2 mph - 1.90 in Rain Rain
2:51 PM 69.1 °F 68.0 °F 96% 29.53 in 0.8 mi North 9.2 mph 21.9 mph 2.03 in Rain , Thunderstorm Heavy Thunderstorms and Rain
3:41 PM 69.8 °F 68.0 °F 94% 29.55 in 1.0 mi North 9.2 mph 17.3 mph 0.42 in Rain , Thunderstorm Light Thunderstorms and Rain
3:51 PM 69.1 °F 68.0 °F 96% 29.51 in 1.0 mi North 11.5 mph 17.3 mph 0.44 in Rain , Thunderstorm Thunderstorms and Rain
4:00 PM 69.8 °F 66.2 °F 88% 29.51 in 2.0 mi North 11.5 mph 23.0 mph 0.02 in Rain , Thunderstorm Thunderstorms and Rain
4:20 PM 69.8 °F 66.2 °F 88% 29.57 in 3.0 mi WNW 8.1 mph 20.7 mph 0.08 in Rain Light Rain
4:51 PM 69.1 °F 66.9 °F 93% 29.60 in 6.0 mi West 9.2 mph - 0.13 in Rain Light Rain
5:32 PM 71.6 °F 68.0 °F 88% 29.64 in 10.0 mi WNW 6.9 mph - 0.00 in   Mostly Cloudy
5:51 PM 72.0 °F 68.0 °F 87% 29.65 in 10.0 mi WNW 9.2 mph - 0.00 in   Mostly Cloudy
6:40 PM 71.6 °F 68.0 °F 88% 29.70 in 10.0 mi WSW 5.8 mph - N/A   Mostly Cloudy
6:51 PM 71.1 °F 68.0 °F 90% 29.69 in 10.0 mi West 6.9 mph - N/A   Mostly Cloudy
7:51 PM 71.1 °F 68.0 °F 90% 29.73 in 10.0 mi WSW 6.9 mph - N/A   Mostly Cloudy
8:51 PM 71.1 °F 69.1 °F 93% 29.76 in 10.0 mi SW 6.9 mph - N/A   Mostly Cloudy
9:51 PM 71.1 °F 69.1 °F 93% 29.80 in 10.0 mi SW 4.6 mph - 0.00 in Rain Light Rain
10:51 PM 71.1 °F 69.1 °F 93% 29.82 in 10.0 mi SW 6.9 mph - 0.00 in Rain Light Rain
11:51 PM 70.0 °F 68.0 °F 93% 29.82 in 10.0 mi Calm Calm - 0.00 in Rain Light Rain